DW9727 Weather Reports


time (UTC)temp
F
wind
direction
speed
knots
gust
knots
rain 1hr
in
rain 24hr
in
rain mn
in
humidity
%
barometer
mb
20260905131711 75 45 0.9 2.6 0.00 0.00 0.00 85 1010.4
20260905130711 74 53 0.9 1.7 0.00 0.00 0.00 87 1010.2
20260905125711 73 53 0.0 1.7 0.00 0.00 0.00 87 1010.0
20260905124711 73 53 0.0 0.0 0.00 0.00 0.00 87 1009.9
20260905123711 73 53 0.0 1.7 0.00 0.00 0.00 87 1009.9
20260905122711 73 53 0.0 2.6 0.00 0.00 0.00 87 1009.8
20260905120710 73 97 0.9 1.7 0.00 0.00 0.00 86 1009.6
20260905115711 73 83 0.9 1.7 0.00 0.00 0.00 87 1009.3
20260905114711 73 83 0.9 1.7 0.00 0.00 0.00 86 1009.1
20260905113710 73 80 0.9 1.7 0.00 0.00 0.00 85 1008.9
20260905112710 73 165 0.0 0.9 0.00 0.00 0.00 84 1008.8
20260905110711 74 173 0.9 2.6 0.00 0.00 0.00 84 1008.9
20260905105711 74 182 1.7 2.6 0.00 0.00 0.00 83 1008.8
20260905104710 74 170 0.0 0.0 0.00 0.00 0.00 83 1009.1
20260905103711 75 170 0.0 0.0 0.00 0.00 0.00 82 1009.1
20260905102711 75 173 0.9 1.7 0.00 0.00 0.00 82 1009.1
20260905101710 75 173 0.0 2.6 0.00 0.00 0.00 82 1009.0
20260905100710 75 159 0.9 4.3 0.00 0.00 0.00 82 1008.8
20260905093710 76 179 3.5 7.8 0.00 0.00 0.00 81 1008.7
20260905091711 77 172 5.2 7.8 0.00 0.00 0.00 80 1008.6
20260905090710 77 178 4.3 7.0 0.00 0.00 0.00 80 1008.8
20260905085711 77 165 4.3 6.1 0.00 0.00 0.00 80 1008.8
20260905083711 78 167 4.3 6.1 0.00 0.00 0.00 79 1009.1
20260905082711 78 175 4.3 5.2 0.00 0.00 0.00 79 1009.1
20260905081711 78 155 2.6 6.1 0.00 0.00 0.00 79 1009.2
20260905075711 78 151 1.7 5.2 0.00 0.00 0.00 79 1009.3
20260905074710 78 134 2.6 5.2 0.00 0.00 0.00 79 1009.4
20260905073711 78 126 2.6 2.6 0.00 0.00 0.00 79 1009.3
20260905072711 79 119 1.7 2.6 0.00 0.00 0.00 80 1009.6
20260905071710 79 136 1.7 2.6 0.00 0.00 0.00 79 1009.6
20260905065710 79 142 0.9 2.6 0.00 0.00 0.00 80 1009.8
20260905064711 79 142 0.9 4.3 0.00 0.00 0.00 80 1009.7
20260905063710 80 149 0.9 2.6 0.00 0.00 0.00 80 1009.7
20260905062711 80 149 0.0 1.7 0.00 0.00 0.00 79 1009.7
20260905061711 80 149 0.0 1.7 0.00 0.00 0.00 79 1009.9
20260905060711 81 149 0.9 1.7 0.00 0.00 0.00 79 1009.9
20260905054710 81 149 0.9 2.6 0.00 0.00 0.00 78 1010.0
20260905053711 82 169 1.7 5.2 0.00 0.00 0.00 77 1009.8
20260905052711 82 153 2.6 5.2 0.00 0.00 0.00 77 1009.8
20260905051710 82 144 2.6 6.1 0.00 0.00 0.00 76 1009.7
20260905050710 83 158 2.6 5.2 0.00 0.00 0.00 76 1009.8
20260905045710 83 135 1.7 4.3 0.00 0.00 0.00 76 1009.6
20260905044711 83 146 2.6 5.2 0.00 0.00 0.00 76 1009.4
20260905043711 83 114 1.7 4.3 0.00 0.00 0.00 76 1009.5
20260905042710 84 157 1.7 5.2 0.00 0.00 0.00 76 1009.5
20260905041711 84 148 2.6 6.1 0.00 0.00 0.00 75 1009.4
20260905040711 84 153 2.6 5.2 0.00 0.00 0.00 76 1009.4
20260905035711 84 134 1.7 4.3 0.00 0.00 0.00 76 1009.5
20260905034711 85 162 1.7 2.6 0.00 0.00 0.00 76 1009.5
20260905033711 85 141 1.7 2.6 0.00 0.00 0.00 76 1009.3
20260905032711 85 154 0.9 2.6 0.00 0.00 0.00 76 1009.3
20260905031710 85 146 1.7 5.2 0.00 0.00 0.00 76 1009.1
20260905025710 85 105 1.7 2.6 0.00 0.00 0.00 76 1009.1
20260905024710 86 74 0.9 1.7 0.00 0.00 0.00 74 1008.9
20260905023711 86 96 0.9 2.6 0.00 0.00 0.00 73 1008.9
20260905021711 87 117 0.0 2.6 0.00 0.00 0.00 71 1008.8
20260905020711 87 123 0.9 2.6 0.00 0.00 0.00 71 1008.5
20260905014710 88 63 0.0 2.6 0.00 0.00 0.00 69 1008.5
20260905013710 88 113 1.7 5.2 0.00 0.00 0.00 68 1008.4
20260905012711 89 118 2.6 5.2 0.00 0.00 0.00 67 1008.3
20260905011711 89 104 0.9 2.6 0.00 0.00 0.00 66 1008.4
20260905010711 90 172 0.9 1.7 0.00 0.00 0.00 65 1008.4
20260905005711 90 172 1.7 5.2 0.00 0.00 0.00 64 1008.5
20260905004710 91 148 1.7 2.6 0.00 0.00 0.00 62 1008.5
20260905001710 91 159 1.7 5.2 0.00 0.00 0.00 60 1008.4
20260905000711 92 132 2.6 4.3 0.00 0.00 0.00 58 1008.1
20260904235711 92 123 2.6 6.1 0.00 0.00 0.00 57 1008.0
20260904234711 93 151 4.3 8.7 0.00 0.00 0.00 57 1007.9
20260904232711 94 157 4.3 8.7 0.00 0.00 0.00 55 1007.9
20260904231711 94 178 3.5 6.1 0.00 0.00 0.00 55 1007.9
20260904230710 94 128 3.5 6.1 0.00 0.00 0.00 53 1008.1
20260904225711 93 161 4.3 7.8 0.00 0.00 0.00 55 1008.1
20260904224711 93 149 3.5 7.0 0.00 0.00 0.00 57 1008.1
20260904223710 93 160 0.9 4.3 0.00 0.00 0.00 57 1008.1
20260904222711 93 141 2.6 6.1 0.00 0.00 0.00 56 1008.1
20260904221711 93 168 4.3 7.8 0.00 0.00 0.00 55 1008.2
20260904220711 94 135 4.3 10.4 0.00 0.00 0.00 53 1008.1
20260904215711 95 165 6.1 11.3 0.00 0.00 0.00 52 1008.2
20260904214711 96 171 5.2 11.3 0.00 0.00 0.00 54 1008.1
20260904212710 95 167 5.2 10.4 0.00 0.00 0.00 53 1008.3
20260904211711 95 175 4.3 7.8 0.00 0.00 0.00 54 1008.5
20260904210711 95 119 6.1 10.4 0.00 0.00 0.00 54 1008.5
20260904205712 95 176 5.2 11.3 0.00 0.00 0.00 54 1008.4
20260904203710 94 103 5.2 10.4 0.00 0.00 0.00 56 1008.4
20260904202711 93 128 5.2 10.4 0.00 0.00 0.00 58 1008.7
20260904201711 92 161 3.5 7.8 0.00 0.00 0.00 57 1008.8
20260904200710 92 127 2.6 6.1 0.00 0.00 0.00 55 1008.6
20260904195710 92 82 1.7 7.0 0.00 0.00 0.00 55 1008.5
20260904193711 92 127 5.2 7.0 0.00 0.00 0.00 57 1008.7
20260904192710 92 168 5.2 7.8 0.00 0.00 0.00 60 1008.8
20260904191711 92 45 0.9 4.3 0.00 0.00 0.00 58 1008.9
20260904190710 92 154 1.7 5.2 0.00 0.00 0.00 58 1008.8
20260904185710 92 300 0.9 2.6 0.00 0.00 0.00 60 1009.1
20260904184710 91 151 1.7 6.1 0.00 0.00 0.00 61 1009.1
20260904183710 91 121 0.9 2.6 0.00 0.00 0.00 60 1009.1
20260904182710 90 115 0.9 2.6 0.00 0.00 0.00 64 1009.2
20260904181710 90 290 0.9 4.3 0.00 0.00 0.00 62 1009.3
20260904175710 89 219 2.6 5.2 0.00 0.00 0.00 61 1009.4
20260904174710 90 242 2.6 8.7 0.00 0.00 0.00 63 1009.5
20260904173711 89 165 4.3 10.4 0.00 0.00 0.00 65 1009.6
20260904172711 88 169 4.3 7.8 0.00 0.00 0.00 65 1009.7
20260904170710 87 213 4.3 7.8 0.00 0.00 0.00 66 1009.8
20260904165711 87 179 0.9 7.0 0.00 0.00 0.00 64 1009.5
20260904164711 87 255 3.5 6.1 0.00 0.00 0.00 65 1009.4
20260904163710 86 205 1.7 2.6 0.00 0.00 0.00 67 1009.4
20260904162710 86 215 1.7 5.2 0.00 0.00 0.00 67 1009.3
20260904161711 85 223 2.6 5.2 0.00 0.00 0.00 66 1009.4
20260904160711 85 209 1.7 4.3 0.00 0.00 0.00 69 1009.2
20260904155711 84 202 2.6 5.2 0.00 0.00 0.00 68 1009.3
20260904154711 84 253 0.9 1.7 0.00 0.00 0.00 67 1009.1
20260904153710 84 333 1.7 2.6 0.00 0.00 0.00 71 1009.3
20260904152710 83 250 0.0 2.6 0.00 0.00 0.00 71 1009.2
20260904151711 83 312 0.9 2.6 0.00 0.00 0.00 69 1009.1
20260904150710 82 199 1.7 2.6 0.00 0.00 0.00 71 1009.2
20260904144711 82 222 0.0 1.7 0.00 0.00 0.00 70 1009.3
20260904143710 81 332 1.7 2.6 0.00 0.00 0.00 73 1009.1
20260904142710 80 311 0.9 2.6 0.00 0.00 0.00 74 1009.0
20260904141710 79 298 1.7 2.6 0.00 0.00 0.00 76 1009.1
20260904140710 78 318 0.0 1.7 0.00 0.00 0.00 77 1009.1
20260904135710 78 292 0.0 0.0 0.00 0.00 0.00 78 1009.2
20260904134710 77 292 0.0 0.0 0.00 0.00 0.00 79 1009.0
20260904133710 75 292 0.0 0.0 0.00 0.00 0.00 83 1009.1